Weather History for Jefferson, NC

Change the Weather History Date:

Saturday, January 13, 2007

  Actual Average Record
Temperature  
Mean Temperature 55 °F -  
Max Temperature 64 °F 39 °F 65 °F (2013)
Min Temperature 46 °F 21 °F -5 °F (1973)
Degree Days  
Heating Degree Days 10    
Growing Degree Days 5 (Base 50)    
Moisture  
Dew Point 42 °F    
Average Humidity 62    
Maximum Humidity 76    
Minimum Humidity 40    
Precipitation  
Precipitation 0.00 in - - ()
Sea Level Pressure  
Sea Level Pressure 30.34 in    
Wind  
Wind Speed 3 mph (SW)    
Max Wind Speed 13 mph    
Max Gust Speed 20 mph    
Visibility 10 miles    
Events      
Averages and records for this station are not official NWS values.
T = Trace of Precipitation, MM = Missing Value Source: NWS Daily Summary

Daily Weather History Graph

Daily Weather History Graph

Search for Another Location

Airport:

Trip Planner

Search our weather history database for the weather conditions in past years. The results will help you decide how hot, cold, wet, or windy it might be!

Date:

Astronomy

Jan. 13, 2007 Rise Set
Actual Time 7:37 AM EST 5:31 PM EST
Civil Twilight 7:09 AM EST 5:59 PM EST
Nautical Twilight 6:37 AM EST 6:31 PM EST
Astronomical Twilight 6:06 AM EST 7:02 PM EST
Moon 2:29 AM EST (1/13) 12:41 PM EST (1/13)
Length of Visible Light 10h 50m
Length of Day
9h 54m
Waning Crescent, 30% of the Moon is Illuminated
Jan 13
Waning Crescent
Jan 18
New
Jan 25
First Quarter
Feb 2
Full
Feb 10
Last Quarter

Hourly Weather History & Observations

Time (EST) Temp. Dew Point Humidity Pressure Visibility Wind Dir Wind Speed Gust Speed Precip Events Conditions
12:01 AM 46.4 °F 39.2 °F 76% 30.39 in 10.0 mi Calm Calm - N/A   Clear
12:21 AM 46.4 °F 39.2 °F 76% 30.38 in 10.0 mi Calm Calm - N/A   Clear
12:41 AM 51.8 °F 39.2 °F 62% 30.38 in 10.0 mi SW 4.6 mph - N/A   Clear
1:01 AM 53.6 °F 41.0 °F 62% 30.38 in 10.0 mi SSW 3.5 mph - N/A   Scattered Clouds
1:21 AM 53.6 °F 41.0 °F 62% 30.37 in 10.0 mi SW 5.8 mph - N/A   Clear
1:41 AM 53.6 °F 42.8 °F 67% 30.37 in 10.0 mi SSW 6.9 mph - N/A   Clear
2:01 AM 53.6 °F 42.8 °F 67% 30.38 in 10.0 mi South 3.5 mph - N/A   Clear
2:21 AM 51.8 °F 42.8 °F 71% 30.37 in 10.0 mi South 5.8 mph - N/A   Clear
2:41 AM 51.8 °F 41.0 °F 67% 30.37 in 10.0 mi South 5.8 mph - N/A   Clear
3:02 AM 51.8 °F 41.0 °F 67% 30.37 in 10.0 mi SSE 3.5 mph - N/A   Clear
3:21 AM 51.8 °F 41.0 °F 67% 30.37 in 10.0 mi SSE 3.5 mph - N/A   Clear
4:01 AM 51.8 °F 42.8 °F 71% 30.36 in 10.0 mi SE 3.5 mph - N/A   Scattered Clouds
4:21 AM 51.8 °F 42.8 °F 71% 30.36 in 10.0 mi SE 3.5 mph - N/A   Clear
4:44 AM 51.8 °F 42.8 °F 71% 30.35 in 10.0 mi SSE 3.5 mph - N/A   Clear
5:01 AM 51.8 °F 42.8 °F 71% 30.35 in 10.0 mi South 3.5 mph - N/A   Clear
5:21 AM 51.8 °F 42.8 °F 71% 30.35 in 10.0 mi Calm Calm - N/A   Clear
5:41 AM 50.0 °F 42.8 °F 76% 30.34 in 10.0 mi Calm Calm - N/A   Clear
6:01 AM 51.8 °F 42.8 °F 71% 30.34 in 10.0 mi Calm Calm - N/A   Clear
6:21 AM 48.2 °F 41.0 °F 76% 30.34 in 10.0 mi Calm Calm - N/A   Clear
6:41 AM 48.2 °F 41.0 °F 76% 30.35 in 10.0 mi Calm Calm - N/A   Clear
7:02 AM 48.2 °F 41.0 °F 76% 30.35 in 10.0 mi Calm Calm - N/A   Clear
7:21 AM 51.8 °F 42.8 °F 71% 30.35 in 10.0 mi Calm Calm - N/A   Clear
7:41 AM 51.8 °F 42.8 °F 71% 30.36 in 10.0 mi Calm Calm - N/A   Clear
8:02 AM 51.8 °F 42.8 °F 71% 30.36 in 10.0 mi Calm Calm - N/A   Clear
8:21 AM 51.8 °F 41.0 °F 67% 30.36 in 10.0 mi Calm Calm - N/A   Clear
8:41 AM 51.8 °F 42.8 °F 71% 30.36 in 10.0 mi Calm Calm - N/A   Clear
9:01 AM 50.0 °F 42.8 °F 76% 30.36 in 10.0 mi Calm Calm - N/A   Clear
9:21 AM 51.8 °F 42.8 °F 71% 30.36 in 10.0 mi Calm Calm - N/A   Clear
9:41 AM 53.6 °F 44.6 °F 72% 30.37 in 10.0 mi Calm Calm - N/A   Clear
10:01 AM 53.6 °F 42.8 °F 67% 30.37 in 10.0 mi Calm Calm - N/A   Clear
10:21 AM 55.4 °F 42.8 °F 63% 30.38 in 10.0 mi Calm Calm - N/A   Clear
10:42 AM 59.0 °F 41.0 °F 51% 30.38 in 10.0 mi West 4.6 mph - N/A   Clear
11:01 AM 59.0 °F 41.0 °F 51% 30.37 in 10.0 mi WNW 9.2 mph - N/A   Clear
11:21 AM 59.0 °F 41.0 °F 51% 30.37 in 10.0 mi West 8.1 mph - N/A   Clear
11:41 AM 59.0 °F 39.2 °F 48% 30.36 in 10.0 mi West 9.2 mph 16.1 mph N/A   Clear
12:01 PM 60.8 °F 41.0 °F 48% 30.35 in 10.0 mi WSW 9.2 mph - N/A   Clear
12:23 PM 60.8 °F 39.2 °F 45% 30.34 in 10.0 mi West 11.5 mph 17.3 mph N/A   Clear
12:42 PM 60.8 °F 39.2 °F 45% 30.33 in 10.0 mi West 8.1 mph 19.6 mph N/A   Clear
1:01 PM 64.4 °F 41.0 °F 42% 30.32 in 10.0 mi West 9.2 mph 16.1 mph N/A   Clear
1:21 PM 64.4 °F 41.0 °F 42% 30.31 in 10.0 mi West 12.7 mph 19.6 mph N/A   Clear
1:41 PM 64.4 °F 39.2 °F 40% 30.31 in 10.0 mi West 11.5 mph 19.6 mph N/A   Clear
2:01 PM 64.4 °F 39.2 °F 40% 30.31 in 10.0 mi West 6.9 mph - N/A   Clear
2:21 PM 64.4 °F 39.2 °F 40% 30.30 in 10.0 mi West 8.1 mph 17.3 mph N/A   Clear
2:41 PM 64.4 °F 39.2 °F 40% 30.29 in 10.0 mi West 9.2 mph - N/A   Clear
3:01 PM 64.4 °F 39.2 °F 40% 30.29 in 10.0 mi WSW 4.6 mph - N/A   Scattered Clouds
3:21 PM 64.4 °F 39.2 °F 40% 30.30 in 10.0 mi West 4.6 mph - N/A   Mostly Cloudy
3:41 PM 62.6 °F 42.8 °F 48% 30.30 in 10.0 mi Calm Calm - N/A   Mostly Cloudy
4:01 PM 60.8 °F 42.8 °F 52% 30.30 in 10.0 mi Calm Calm - N/A   Scattered Clouds
4:21 PM 60.8 °F 44.6 °F 55% 30.30 in 10.0 mi SE 5.8 mph - N/A   Scattered Clouds
4:41 PM 59.0 °F 42.8 °F 55% 30.31 in 10.0 mi SE 3.5 mph - N/A   Scattered Clouds
5:01 PM 59.0 °F 42.8 °F 55% 30.32 in 10.0 mi SSE 3.5 mph - N/A   Scattered Clouds
5:21 PM 59.0 °F 44.6 °F 59% 30.32 in 10.0 mi Calm Calm - N/A   Scattered Clouds
6:01 PM 55.4 °F 42.8 °F 63% 30.33 in 10.0 mi Calm Calm - N/A   Scattered Clouds
6:21 PM 57.2 °F 44.6 °F 63% 30.33 in 10.0 mi Calm Calm - N/A   Overcast
6:41 PM 57.2 °F 44.6 °F 63% 30.33 in 10.0 mi Calm Calm - N/A   Overcast
7:04 PM 55.4 °F 44.6 °F 67% 30.32 in 10.0 mi Calm Calm - N/A   Mostly Cloudy
7:21 PM 55.4 °F 42.8 °F 63% 30.32 in 10.0 mi Calm Calm - N/A   Clear
7:41 PM 55.4 °F 44.6 °F 67% 30.32 in 10.0 mi Calm Calm - N/A   Clear
8:01 PM 55.4 °F 44.6 °F 67% 30.32 in 10.0 mi Calm Calm - N/A   Clear
8:21 PM 55.4 °F 44.6 °F 67% 30.32 in 10.0 mi SSE 3.5 mph - N/A   Clear
8:41 PM 53.6 °F 42.8 °F 67% 30.32 in 10.0 mi Calm Calm - N/A   Clear
9:04 PM 53.6 °F 44.6 °F 72% 30.32 in 10.0 mi Calm Calm - N/A   Clear
9:21 PM 53.6 °F 44.6 °F 72% 30.31 in 10.0 mi SSE 3.5 mph - N/A   Clear
9:41 PM 53.6 °F 44.6 °F 72% 30.32 in 10.0 mi Calm Calm - N/A   Clear
10:01 PM 53.6 °F 44.6 °F 72% 30.32 in 10.0 mi Calm Calm - N/A   Clear
10:21 PM 53.6 °F 44.6 °F 72% 30.31 in 10.0 mi Calm Calm - N/A   Clear
11:01 PM 53.6 °F 44.6 °F 72% 30.32 in 10.0 mi Calm Calm - N/A   Clear
11:21 PM 53.6 °F 44.6 °F 72% 30.32 in 10.0 mi WSW 3.5 mph - N/A   Clear
11:41 PM 53.6 °F 44.6 °F 72% 30.31 in 10.0 mi Calm Calm - N/A   Clear